Location: Unspecified
(0.0000°N, 0.0000°E)
Time: 02:36:26
(UTC+00:00)

Vanguard 2 - Visible Passes

Search period start: 03 July 2015 00:00
Search period end: 13 July 2015 00:00
Orbit: 555 x 2942 km, 32.9° (Epoch: 01 July)

Date Brightness Start Highest point End Pass type
(mag) Time Alt. Az. Time Alt. Az. Time Alt. Az.
03 Jul 11.5 01:50:32 17° SE 01:50:32 17° SE 01:55:28 10° SE visible
03 Jul 10.6 03:52:01 26° SSW 04:00:22 40° SSE 04:12:18 10° E visible
03 Jul 9.6 19:09:49 10° W 19:16:34 42° SSW 19:24:55 16° SE visible
03 Jul 11.0 21:22:28 10° SW 21:26:24 17° SSW 21:26:24 17° SSW visible
04 Jul 11.3 02:08:12 23° SE 02:08:12 23° SE 02:16:56 10° ESE visible
04 Jul 10.4 04:09:41 26° SSW 04:20:01 51° SSE 04:32:00 10° ENE visible
04 Jul 10.0 19:29:25 10° W 19:36:03 30° SSW 19:42:37 17° SSE visible
04 Jul 11.3 21:43:37 10° SW 21:44:06 11° SW 21:44:06 11° SW visible
05 Jul 11.0 02:25:53 30° SSE 02:25:53 30° SSE 02:37:56 10° E visible
05 Jul 10.1 04:27:21 24° SW 04:39:25 66° SSE 04:51:20 10° ENE visible
05 Jul 10.4 19:49:29 10° WSW 19:55:44 22° SSW 20:00:18 17° SSE visible
06 Jul 10.8 02:43:34 37° SSE 02:44:39 38° SSE 02:58:26 10° E visible
06 Jul 10.0 04:45:03 20° SW 04:58:37 84° SE 05:10:21 10° ENE visible
06 Jul 10.7 20:10:09 10° SW 20:15:36 16° SSW 20:17:58 15° S visible
07 Jul 11.8 00:59:47 12° ESE 00:59:47 12° ESE 01:01:02 10° ESE visible
07 Jul 10.6 03:01:15 44° S 03:04:21 48° SSE 03:18:27 10° E visible
07 Jul 10.0 05:02:44 16° WSW 05:17:39 77° NW 05:29:06 10° NE visible
07 Jul 10.9 20:31:32 10° SSW 20:35:36 13° S 20:35:36 13° S visible
08 Jul 11.5 01:17:28 19° ESE 01:17:28 19° ESE 01:22:33 10° ESE visible
08 Jul 10.3 03:18:56 49° SSW 03:23:51 60° SSE 03:38:02 10° ENE visible
08 Jul 10.1 05:20:25 11° WSW 05:36:34 60° NW 05:47:38 10° NE visible
08 Jul 10.1 18:37:39 10° WSW 18:42:18 19° SSW 18:48:24 10° SSE visible
09 Jul 11.2 01:35:08 28° ESE 01:35:08 28° ESE 01:43:30 10° E visible
09 Jul 10.1 03:36:37 48° SW 03:43:09 76° SE 03:57:16 10° ENE visible
09 Jul 10.4 05:39:49 10° WSW 05:55:28 45° NW 06:05:57 10° NNE visible
09 Jul 10.5 18:58:31 10° SW 19:01:59 13° SSW 19:05:57 10° SSE visible
10 Jul 10.9 01:52:48 39° ESE 01:52:48 39° ESE 02:03:54 10° E visible
10 Jul 10.1 03:54:16 43° SW 04:02:18 87° NW 04:16:12 10° NE visible
11 Jul 10.5 02:10:25 52° ESE 02:10:25 52° ESE 02:23:49 10° ENE visible
11 Jul 10.2 04:11:53 35° WSW 04:21:21 70° NW 04:34:54 10° NE visible
12 Jul 11.8 00:26:33 11° E 00:26:33 11° E 00:27:19 10° E visible
12 Jul 10.2 02:28:01 67° SE 02:28:01 67° SE 02:43:18 10° ENE visible
12 Jul 10.4 04:29:29 27° W 04:40:24 55° NW 04:53:24 10° NE visible
